Radiation Dose at Monitoring Post of Fukushima Daini Nuclear Power Station
Date,Time,MP-1(microSv/h),MP-2(microSv/h),MP-3(microSv/h),MP-4(microSv/h),MP-5(microSv/h),MP-6(microSv/h),MP-7(microSv/h),Wind Direction,Wind Velocity(m/s),Rain
2024/05/17,00:00,0.141,0.125,0.199,0.189,0.201,0.112,0.073,northwest,3.4,No
2024/05/17,00:10,0.141,0.124,0.200,0.188,0.200,0.111,0.072,north,2.1,No
2024/05/17,00:20,0.142,0.124,0.200,0.189,0.201,0.112,0.073,north,2.2,No
2024/05/17,00:30,0.141,0.123,0.200,0.189,0.201,0.111,0.073,north-northwest,1.5,No
2024/05/17,00:40,0.142,0.124,0.201,0.188,0.200,0.111,0.073,north-northwest,1.1,No
2024/05/17,00:50,0.141,0.125,0.201,0.190,0.201,0.112,0.073,north,1.2,No
2024/05/17,01:00,0.142,0.124,0.200,0.188,0.201,0.112,0.074,north,1.5,No
2024/05/17,01:10,0.140,0.124,0.200,0.189,0.201,0.112,0.073,north,1.7,No
2024/05/17,01:20,0.141,0.124,0.201,0.188,0.199,0.112,0.073,west-northwest,2.1,No
2024/05/17,01:30,0.142,0.123,0.200,0.187,0.203,0.111,0.073,west-northwest,1.9,No
2024/05/17,01:40,0.141,0.125,0.201,0.188,0.201,0.111,0.074,northwest,2.0,No
2024/05/17,01:50,0.142,0.124,0.200,0.190,0.201,0.111,0.073,northwest,1.8,No
2024/05/17,02:00,0.142,0.125,0.200,0.188,0.202,0.112,0.074,northwest,2.5,No
2024/05/17,02:10,0.141,0.124,0.201,0.189,0.202,0.111,0.073,northwest,3.1,No
2024/05/17,02:20,0.142,0.124,0.201,0.188,0.202,0.112,0.074,west-northwest,2.6,No
2024/05/17,02:30,0.141,0.126,0.200,0.189,0.201,0.112,0.073,west-northwest,2.0,No
2024/05/17,02:40,0.142,0.124,0.200,0.188,0.201,0.111,0.073,southwest,0.7,No
2024/05/17,02:50,0.142,0.124,0.201,0.189,0.201,0.111,0.074,south-southwest,0.9,No
2024/05/17,03:00,0.141,0.124,0.199,0.189,0.201,0.112,0.074,south,1.1,No
2024/05/17,03:10,0.141,0.125,0.202,0.189,0.202,0.112,0.073,south-southeast,1.8,No
2024/05/17,03:20,0.141,0.124,0.201,0.189,0.202,0.111,0.073,south-southeast,2.0,No
2024/05/17,03:30,0.141,0.124,0.200,0.190,0.202,0.112,0.073,south-southeast,2.2,No
2024/05/17,03:40,0.141,0.124,0.200,0.188,0.201,0.111,0.074,south-southeast,2.8,No
2024/05/17,03:50,0.141,0.124,0.200,0.188,0.201,0.112,0.074,southeast,2.4,No
2024/05/17,04:00,0.142,0.125,0.201,0.191,0.202,0.111,0.073,southeast,1.9,No
2024/05/17,04:10,0.141,0.124,0.200,0.188,0.201,0.112,0.074,south,1.6,No
2024/05/17,04:20,0.142,0.125,0.200,0.189,0.201,0.112,0.074,southwest,1.9,No
2024/05/17,04:30,0.142,0.124,0.200,0.189,0.201,0.111,0.073,southwest,2.4,No
2024/05/17,04:40,0.142,0.123,0.201,0.188,0.200,0.112,0.074,south,3.2,No
2024/05/17,04:50,0.142,0.125,0.201,0.189,0.202,0.112,0.074,south-southeast,3.4,No
2024/05/17,05:00,0.142,0.124,0.201,0.190,0.201,0.112,0.074,south-southeast,3.5,No
2024/05/17,05:10,0.142,0.124,0.200,0.189,0.200,0.112,0.074,south,3.2,No
2024/05/17,05:20,0.142,0.125,0.200,0.188,0.202,0.111,0.073,south,3.9,No
2024/05/17,05:30,0.141,0.125,0.201,0.189,0.201,0.112,0.074,south,4.1,No
2024/05/17,05:40,0.141,0.124,0.202,0.189,0.202,0.112,0.074,south,3.9,No
2024/05/17,05:50,0.142,0.124,0.199,0.189,0.201,0.112,0.073,south,3.8,No
2024/05/17,06:00,0.142,0.125,0.200,0.190,0.201,0.111,0.073,south,3.7,No
2024/05/17,06:10,0.142,0.125,0.201,0.188,0.200,0.112,0.073,south,3.8,No
2024/05/17,06:20,0.141,0.124,0.200,0.189,0.202,0.112,0.074,south,4.3,No
2024/05/17,06:30,0.141,0.123,0.200,0.188,0.198,0.111,0.073,south,4.2,No
2024/05/17,06:40,0.140,0.123,0.200,0.189,0.203,0.112,0.073,south,4.4,No
2024/05/17,06:50,0.140,0.123,0.200,0.186,0.200,0.111,0.073,south,4.9,No
2024/05/17,07:00,0.142,0.124,0.201,0.189,0.203,0.111,0.073,south,4.0,No
2024/05/17,07:10,0.141,0.124,0.199,0.188,0.200,0.112,0.073,south,3.1,No
2024/05/17,07:20,0.141,0.124,0.199,0.188,0.202,0.112,0.073,south,2.3,No
2024/05/17,07:30,0.141,0.124,0.200,0.187,0.200,0.111,0.073,south,3.6,No
2024/05/17,07:40,0.140,0.124,0.198,0.187,0.202,0.112,0.072,south-southeast,4.3,No
2024/05/17,07:50,0.140,0.123,0.197,0.189,0.200,0.111,0.072,south-southeast,5.6,No
2024/05/17,08:00,0.142,0.124,0.200,0.187,0.202,0.112,0.073,south-southeast,5.0,No
2024/05/17,08:10,0.140,0.124,0.199,0.187,0.202,0.112,0.073,south-southeast,4.8,No
2024/05/17,08:20,0.139,0.122,0.198,0.189,0.198,0.112,0.073,south-southeast,5.2,No
2024/05/17,08:30,0.141,0.125,0.198,0.188,0.201,0.112,0.072,south-southeast,5.8,No
2024/05/17,08:40,0.143,0.125,0.200,0.186,0.201,0.111,0.073,south-southeast,5.4,No
2024/05/17,08:50,0.140,0.123,0.201,0.188,0.199,0.112,0.074,south-southeast,5.0,No
2024/05/17,09:00,0.140,0.124,0.200,0.189,0.200,0.112,0.073,south-southeast,4.2,No
2024/05/17,09:10,0.142,0.124,0.199,0.188,0.201,0.112,0.073,-,CALM,No
2024/05/17,09:20,0.142,0.123,0.199,0.187,0.201,0.112,0.073,west-southwest,5.3,No
2024/05/17,09:30,0.140,0.124,0.199,0.187,0.200,0.112,0.073,west,8.3,No
2024/05/17,09:40,0.142,0.124,0.202,0.189,0.203,0.111,0.072,west,6.0,No
2024/05/17,09:50,0.141,0.124,0.200,0.188,0.201,0.112,0.074,west-southwest,7.4,No
2024/05/17,10:00,0.140,0.125,0.201,0.189,0.200,0.112,0.073,west-southwest,8.1,No
2024/05/17,10:10,0.142,0.124,0.202,0.190,0.202,0.112,0.073,west-southwest,8.4,No
2024/05/17,10:20,0.142,0.124,0.202,0.188,0.202,0.112,0.073,west-southwest,4.2,No
2024/05/17,10:30,0.141,0.125,0.201,0.189,0.199,0.112,0.074,west-southwest,6.6,No
2024/05/17,10:40,0.143,0.125,0.201,0.190,0.202,0.111,0.073,west-southwest,6.3,No
2024/05/17,10:50,0.142,0.125,0.199,0.188,0.203,0.112,0.073,west,4.8,No
2024/05/17,11:00,0.140,0.125,0.202,0.190,0.200,0.112,0.073,west,6.8,No
2024/05/17,11:10,0.142,0.124,0.201,0.190,0.201,0.112,0.074,west,7.6,No
2024/05/17,11:20,0.141,0.125,0.200,0.187,0.203,0.112,0.073,west,5.7,No
2024/05/17,11:30,0.139,0.124,0.201,0.190,0.201,0.113,0.073,west,8.8,No
2024/05/17,11:40,0.142,0.124,0.200,0.190,0.201,0.112,0.074,west,7.4,No
2024/05/17,11:50,0.142,0.125,0.201,0.188,0.203,0.112,0.072,west,6.5,No
2024/05/17,12:00,0.140,0.124,0.203,0.190,0.202,0.112,0.073,west,7.3,No
2024/05/17,12:10,0.142,0.125,0.200,0.190,0.201,0.112,0.074,west,8.7,No
2024/05/17,12:20,0.142,0.125,0.200,0.188,0.202,0.113,0.073,west,9.2,No
2024/05/17,12:30,0.140,0.124,0.202,0.190,0.201,0.113,0.073,west,8.1,No
2024/05/17,12:40,0.143,0.125,0.200,0.190,0.202,0.111,0.074,west,10.6,No
2024/05/17,12:50,0.142,0.125,0.203,0.189,0.203,0.112,0.074,west,8.6,No
2024/05/17,13:00,0.142,0.124,0.203,0.188,0.202,0.113,0.073,west-southwest,8.4,No
2024/05/17,13:10,0.141,0.124,0.201,0.188,0.200,0.113,0.073,west-southwest,9.0,No
2024/05/17,13:20,0.141,0.125,0.201,0.191,0.200,0.112,0.073,west,8.6,No
2024/05/17,13:30,0.140,0.125,0.200,0.190,0.200,0.111,0.073,west-northwest,10.1,No
2024/05/17,13:40,0.142,0.124,0.200,0.190,0.200,0.112,0.073,west,9.5,No
2024/05/17,13:50,0.143,0.125,0.199,0.189,0.200,0.113,0.073,west,6.9,No
2024/05/17,14:00,0.141,0.124,0.202,0.188,0.200,0.113,0.073,west-southwest,7.0,No
2024/05/17,14:10,0.141,0.124,0.202,0.189,0.201,0.112,0.074,west-northwest,8.4,No
2024/05/17,14:20,0.140,0.124,0.201,0.187,0.200,0.114,0.074,west-southwest,10.6,No
2024/05/17,14:30,0.142,0.126,0.201,0.191,0.200,0.113,0.073,west,9.2,No
2024/05/17,14:40,0.143,0.125,0.201,0.192,0.201,0.112,0.073,west,9.5,No
2024/05/17,14:50,0.142,0.125,0.201,0.189,0.200,0.113,0.073,west,6.5,No
2024/05/17,15:00,0.141,0.124,0.200,0.190,0.199,0.112,0.075,west-northwest,9.2,No
2024/05/17,15:10,0.140,0.124,0.200,0.187,0.200,0.112,0.073,west-northwest,8.4,No
2024/05/17,15:20,0.143,0.125,0.201,0.189,0.202,0.111,0.073,west,6.5,No
2024/05/17,15:30,0.144,0.127,0.203,0.192,0.202,0.112,0.074,west,6.5,No
2024/05/17,15:40,0.142,0.126,0.203,0.190,0.201,0.114,0.074,west,7.4,No
2024/05/17,15:50,0.141,0.124,0.202,0.190,0.201,0.114,0.074,west-northwest,10.0,No
2024/05/17,16:00,0.141,0.125,0.202,0.191,0.201,0.112,0.074,west,7.1,No
2024/05/17,16:10,0.144,0.126,0.204,0.192,0.203,0.112,0.074,west-northwest,8.1,No
2024/05/17,16:20,0.143,0.125,0.203,0.190,0.204,0.112,0.074,west,8.5,No
2024/05/17,16:30,0.141,0.126,0.204,0.191,0.204,0.113,0.074,west,9.0,No
2024/05/17,16:40,0.140,0.126,0.203,0.191,0.202,0.113,0.075,west-northwest,7.1,No
2024/05/17,16:50,0.144,0.125,0.202,0.190,0.202,0.112,0.074,west-northwest,6.6,No
2024/05/17,17:00,0.143,0.126,0.204,0.191,0.200,0.113,0.074,west,4.6,No
2024/05/17,17:10,0.141,0.125,0.202,0.189,0.204,0.113,0.074,west,4.0,No
2024/05/17,17:20,0.144,0.125,0.204,0.192,0.203,0.112,0.074,west,6.5,No
2024/05/17,17:30,0.142,0.126,0.204,0.191,0.202,0.113,0.074,west,5.3,No
2024/05/17,17:40,0.143,0.125,0.205,0.190,0.203,0.113,0.074,west-northwest,5.0,No
2024/05/17,17:50,0.144,0.126,0.204,0.192,0.205,0.113,0.074,west,5.8,No
2024/05/17,18:00,0.142,0.125,0.203,0.189,0.203,0.114,0.074,west-northwest,4.7,No
2024/05/17,18:10,0.144,0.127,0.204,0.193,0.204,0.113,0.074,west,5.6,No
2024/05/17,18:20,0.143,0.126,0.203,0.191,0.204,0.114,0.075,west-northwest,7.4,No
2024/05/17,18:30,0.143,0.126,0.203,0.192,0.202,0.113,0.074,west-northwest,5.1,No
2024/05/17,18:40,0.144,0.126,0.203,0.191,0.205,0.114,0.075,west-northwest,4.0,No
2024/05/17,18:50,0.142,0.125,0.204,0.191,0.204,0.113,0.074,northwest,4.1,No
2024/05/17,19:00,0.143,0.126,0.203,0.191,0.205,0.113,0.074,west-northwest,2.9,No
2024/05/17,19:10,0.143,0.126,0.203,0.192,0.204,0.113,0.074,west-northwest,4.3,No
2024/05/17,19:20,0.143,0.126,0.203,0.191,0.204,0.112,0.073,west-northwest,4.0,No
2024/05/17,19:30,0.143,0.126,0.204,0.192,0.203,0.113,0.073,northwest,4.9,No
2024/05/17,19:40,0.144,0.126,0.204,0.190,0.204,0.113,0.074,northwest,4.5,No
2024/05/17,19:50,0.143,0.125,0.203,0.193,0.203,0.113,0.074,northwest,4.4,No
2024/05/17,20:00,0.143,0.125,0.204,0.191,0.203,0.113,0.075,west-northwest,5.7,No
2024/05/17,20:10,0.143,0.126,0.203,0.192,0.204,0.113,0.074,west-northwest,6.7,No
2024/05/17,20:20,0.144,0.126,0.204,0.192,0.202,0.113,0.075,west-northwest,8.1,No
2024/05/17,20:30,0.143,0.126,0.204,0.191,0.203,0.114,0.073,west-northwest,9.0,No
2024/05/17,20:40,0.143,0.125,0.203,0.191,0.202,0.114,0.074,west-northwest,7.5,No
2024/05/17,20:50,0.143,0.126,0.204,0.191,0.204,0.113,0.075,west-northwest,6.4,No
2024/05/17,21:00,0.142,0.126,0.203,0.192,0.203,0.113,0.074,west-northwest,4.8,No
2024/05/17,21:10,0.143,0.125,0.204,0.192,0.204,0.114,0.073,west,2.5,No
2024/05/17,21:20,0.144,0.126,0.203,0.191,0.203,0.113,0.074,west,1.2,No
2024/05/17,21:30,0.143,0.126,0.203,0.191,0.204,0.113,0.074,-,CALM,No
2024/05/17,21:40,0.143,0.126,0.204,0.191,0.203,0.113,0.074,north-northeast,2.0,No
2024/05/17,21:50,0.143,0.125,0.203,0.192,0.204,0.113,0.074,north-northeast,1.4,No
2024/05/17,22:00,0.144,0.127,0.204,0.192,0.203,0.114,0.074,south-southeast,2.0,No
2024/05/17,22:10,0.143,0.126,0.204,0.190,0.205,0.114,0.074,east,0.7,No
2024/05/17,22:20,0.143,0.127,0.204,0.193,0.203,0.113,0.074,north,1.4,No
2024/05/17,22:30,0.144,0.126,0.204,0.190,0.203,0.113,0.074,north-northwest,2.1,No
2024/05/17,22:40,0.143,0.125,0.204,0.191,0.204,0.113,0.074,-,CALM,No
2024/05/17,22:50,0.143,0.127,0.204,0.192,0.203,0.113,0.073,northeast,1.9,No
2024/05/17,23:00,0.143,0.126,0.203,0.191,0.204,0.113,0.074,northeast,0.8,No
2024/05/17,23:10,0.143,0.126,0.202,0.192,0.203,0.114,0.075,north-northeast,2.2,No
2024/05/17,23:20,0.143,0.126,0.204,0.191,0.204,0.114,0.074,west-northwest,0.6,No
2024/05/17,23:30,0.144,0.126,0.203,0.192,0.203,0.113,0.073,east-southeast,1.6,No
2024/05/17,23:40,0.143,0.126,0.204,0.192,0.204,0.113,0.074,east-southeast,2.8,No
2024/05/17,23:50,0.143,0.126,0.203,0.192,0.203,0.114,0.075,east-southeast,3.0,No
